Weather History for Cheyenne, WY

Change the Weather History Date:

Tuesday, January 8, 2013

  Actual Average Record
Temperature  
Mean Temperature 36 °F 29 °F  
Max Temperature 42 °F 40 °F 64 °F (2003)
Min Temperature 30 °F 18 °F -37 °F (1875)
Degree Days  
Heating Degree Days 29 36  
Month to date heating degree days 306 289  
Since 1 July heating degree days 3008 3192  
Cooling Degree Days 0 0  
Month to date cooling degree days 0 0  
Year to date cooling degree days 0 0  
Moisture  
Dew Point 15 °F    
Average Humidity 38    
Maximum Humidity 49    
Minimum Humidity 27    
Precipitation  
Precipitation 0.00 in 0.01 in 0.54 in (1891)
Month to date precipitation T 0.09  
Year to date precipitation T 0.09  
Snow  
Snow 0.00 in 0.20 in 7.80 in (1962)
Month to date snowfall T 1.6  
Since 1 July snowfall 25.4 24.3  
Snow Depth T in    
Sea Level Pressure  
Sea Level Pressure 29.96 in    
Wind  
Wind Speed 23 mph (West)    
Max Wind Speed 45 mph    
Max Gust Speed 55 mph    
Visibility 10 miles    
Events      
T = Trace of Precipitation, MM = Missing Value Source: NWS Daily Summary

Daily Weather History Graph

Daily Weather History Graph

Search for Another Location

Airport:

Trip Planner

Search our weather history database for the weather conditions in past years. The results will help you decide how hot, cold, wet, or windy it might be!

Date:

Astronomy

Jan. 08, 2013 Rise Set
Actual Time 7:24 AM MST 4:48 PM MST
Civil Twilight 6:53 AM MST 5:18 PM MST
Nautical Twilight 6:19 AM MST 5:53 PM MST
Astronomical Twilight 5:46 AM MST 6:26 PM MST
Moon 4:00 AM MST (1/8) 1:52 PM MST (1/8)
Length of Visible Light 10h 25m
Length of Day
9h 23m
Waning Crescent, 13% of the Moon is Illuminated
Jan 8
Waning Crescent
Jan 11
New
Jan 18
First Quarter
Jan 26
Full
Feb 3
Last Quarter

Hourly Weather History & Observations

Time (MST) Temp. Windchill Dew Point Humidity Pressure Visibility Wind Dir Wind Speed Gust Speed Precip Events Conditions
12:53 AM 37.9 °F 26.8 °F 7.0 °F 28% 29.69 in 10.0 mi WSW 24.2 mph 36.8 mph N/A   Clear
1:53 AM 37.0 °F 25.6 °F 8.1 °F 30% 29.72 in 10.0 mi West 24.2 mph - N/A   Clear
2:53 AM 35.1 °F 24.5 °F 10.0 °F 35% 29.78 in 10.0 mi West 18.4 mph 29.9 mph N/A   Clear
3:53 AM 34.0 °F 21.5 °F 12.9 °F 42% 29.77 in 10.0 mi West 24.2 mph 34.5 mph N/A   Clear
4:53 AM 35.1 °F 20.6 °F 15.1 °F 44% 29.79 in 10.0 mi West 36.8 mph 46.0 mph N/A   Clear
5:53 AM 34.0 °F 23.0 °F 15.1 °F 46% 29.84 in 10.0 mi West 18.4 mph 28.8 mph N/A   Clear
6:53 AM 34.0 °F 23.0 °F 15.1 °F 46% 29.88 in 10.0 mi West 18.4 mph - N/A   Clear
7:53 AM 33.1 °F 24.4 °F 16.0 °F 50% 29.90 in 10.0 mi WNW 11.5 mph - N/A   Clear
8:53 AM 37.0 °F 23.5 °F 16.0 °F 42% 29.89 in 10.0 mi WNW 35.7 mph 49.5 mph N/A   Clear
9:53 AM 37.9 °F 24.4 °F 16.0 °F 41% 29.93 in 10.0 mi WNW 38.0 mph 50.6 mph N/A   Clear
10:53 AM 39.0 °F 26.6 °F 16.0 °F 39% 29.90 in 10.0 mi West 33.4 mph 52.9 mph N/A   Clear
11:53 AM 41.0 °F 28.6 °F 15.8 °F 36% 29.88 in 10.0 mi West 38.0 mph 52.9 mph N/A   Clear
12:53 PM 41.0 °F 29.3 °F 16.0 °F 36% 29.86 in 10.0 mi WNW 33.4 mph 47.2 mph N/A   Clear
1:53 PM 41.0 °F 29.3 °F 17.1 °F 38% 29.89 in 10.0 mi West 33.4 mph 44.9 mph N/A   Clear
2:53 PM 39.9 °F 28.8 °F 17.1 °F 40% 29.95 in 10.0 mi WNW 27.6 mph 38.0 mph N/A   Clear
3:53 PM 39.0 °F 28.8 °F 17.1 °F 41% 30.00 in 10.0 mi WNW 21.9 mph 35.7 mph N/A   Clear
4:53 PM 35.6 °F 29.2 °F 15.8 °F 44% 30.04 in 10.0 mi North 8.1 mph - N/A   Clear
5:53 PM 34.0 °F 26.6 °F 16.0 °F 48% 30.12 in 10.0 mi West 9.2 mph 20.7 mph N/A   Clear
6:53 PM 33.1 °F 19.8 °F 16.0 °F 50% 30.12 in 10.0 mi West 26.5 mph 36.8 mph N/A   Clear
7:53 PM 32.0 °F 19.2 °F 16.0 °F 52% 30.16 in 10.0 mi West 23.0 mph - N/A   Clear
8:53 PM 32.0 °F 21.6 °F 15.1 °F 50% 30.19 in 10.0 mi West 15.0 mph - N/A   Clear
9:53 PM 32.0 °F 21.6 °F 15.1 °F 50% 30.20 in 10.0 mi WNW 15.0 mph - N/A   Clear
10:53 PM 30.0 °F 24.1 °F 14.0 °F 51% 30.22 in 10.0 mi SSW 5.8 mph - N/A   Clear
11:53 PM 32.0 °F 22.1 °F 14.0 °F 48% 30.20 in 10.0 mi West 13.8 mph - N/A   Clear